This demonstration page uses our WeatherBlox Daily Observations layout. Learn more.

Left ArrowRight Arrow

53.62937, 11.41316

Hourly Observations for March 11, 2016

Temp ( °F °C ) Dew Point ( °F °C ) Humidity (%) Winds ( mph kmh ) Pressure ( in mb ) Visibility ( mi km ) Precip ( " mm )
5:20 am 05:20 Mostly Cloudy 34 1 32 0 93 93 NNE 6 9 30.36 1028 30 48 N/A
5:50 am 05:50 Mostly Cloudy 36 2 30 -1 81 81 NNE 7 11 30.36 1028 30 48 N/A
6:20 am 06:20 Mostly Cloudy 34 1 30 -1 87 87 N 6 9 30.36 1028 30 48 N/A
6:50 am 06:50 Mostly Cloudy 34 1 30 -1 87 87 N 7 11 30.36 1028 30 48 N/A
7:20 am 07:20 Mostly Cloudy 34 1 30 -1 87 87 N 5 7 30.39 1029 30 48 N/A
7:50 am 07:50 Mostly Cloudy 36 2 30 -1 81 81 NNE 8 13 30.39 1029 30 48 N/A
8:20 am 08:20 Mostly Cloudy 36 2 30 -1 81 81 NNE 8 13 30.39 1029 30 48 N/A
8:50 am 08:50 Mostly Cloudy 36 2 30 -1 81 81 NNE 7 11 30.39 1029 30 48 N/A
9:20 am 09:20 Mostly Cloudy 36 2 30 -1 81 81 NNE 7 11 30.39 1029 30 48 N/A
9:50 am 09:50 Mostly Cloudy 37 3 32 0 81 81 NNE 6 9 30.42 1030 30 48 N/A
10:20 am 10:20 Mostly Cloudy 37 3 32 0 81 81 NE 9 15 30.42 1030 30 48 N/A
10:50 am 10:50 Mostly Cloudy 37 3 32 0 81 81 NE 10 17 30.42 1030 30 48 N/A
11:20 am 11:20 Mostly Cloudy 39 4 32 0 75 75 NNE 8 13 30.42 1030 30 48 N/A
11:50 am 11:50 Mostly Cloudy 39 4 32 0 75 75 NNE 7 11 30.42 1030 30 48 N/A
12:20 pm 12:20 Mostly Cloudy 39 4 32 0 75 75 NNE 7 11 30.42 1030 30 48 N/A
12:50 pm 12:50 Mostly Cloudy 41 5 32 0 70 70 NNE 8 13 30.42 1030 30 48 N/A
1:20 pm 13:20 Mostly Cloudy 39 4 32 0 75 75 NNE 8 13 30.42 1030 30 48 N/A
1:50 pm 13:50 Mostly Cloudy 39 4 32 0 75 75 NE 10 17 30.42 1030 30 48 N/A
2:20 pm 14:20 Mostly Cloudy 39 4 32 0 75 75 ENE 10 17 30.42 1030 30 48 N/A
2:50 pm 14:50 Mostly Cloudy 41 5 32 0 70 70 ENE 6 9 30.42 1030 30 48 N/A
3:20 pm 15:20 Mostly Cloudy 41 5 32 0 70 70 ENE 6 9 30.42 1030 30 48 N/A
3:50 pm 15:50 Mostly Cloudy 41 5 30 -1 66 66 NE 6 9 30.42 1030 30 48 N/A
4:20 pm 16:20 Mostly Cloudy 41 5 30 -1 66 66 NNE 8 13 30.42 1030 30 48 N/A
4:50 pm 16:50 Mostly Cloudy 41 5 30 -1 66 66 NNE 7 11 30.42 1030 30 48 N/A
5:20 pm 17:20 Mostly Cloudy 41 5 30 -1 66 66 NNE 9 15 30.42 1030 30 48 N/A
5:50 pm 17:50 Mostly Cloudy 39 4 30 -1 70 70 NE 9 15 30.45 1031 30 48 N/A

Powered by AerisWeather